This is the latest recevied weather packets stored in our database for station/object KF6YUA. If no packets are shown the sender has not sent any weather packets the latest 1 day(s).
| Time | Temp. | Humidity | Pressure | Rain* | Wind** | Luminosity | Snow |
|---|---|---|---|---|---|---|---|
| 1778019042 | 18.33° C | 75% | 1017.3 hPa | 0 mm | - | 311 W/m² | - |
| 1778016621 | 18.33° C | 76% | 1017.5 hPa | 0 mm | - | 421 W/m² | - |
| 1778016015 | 18.89° C | 73% | 1017.7 hPa | 0 mm | - | 343 W/m² | - |
| 1778013895 | 17.78° C | 75% | 1017.8 hPa | 0 mm | - | 239 W/m² | - |
| 1778013592 | 17.22° C | 77% | 1017.9 hPa | 0 mm | - | 229 W/m² | - |
| 1778010863 | 17.78° C | 75% | 1017.7 hPa | 0 mm | - | 237 W/m² | - |
| 1778009353 | 17.78° C | 73% | 1018 hPa | 0 mm | - | 414 W/m² | - |
| 1778007534 | 17.22° C | 80% | 1018.1 hPa | 0 mm | - | 278 W/m² | - |
| 1778006927 | 16.67° C | 79% | 1018 hPa | 0 mm | - | 253 W/m² | - |
| 1778006624 | 15.56° C | 80% | 1018.1 hPa | 0 mm | - | 264 W/m² | - |
| 1778006018 | 17.22° C | 77% | 1017.9 hPa | 0 mm | - | 345 W/m² | - |
| 1778004502 | 16.11° C | 80% | 1018.1 hPa | 0 mm | - | 377 W/m² | - |
| 1778004198 | 16.67° C | 80% | 1017.9 hPa | 0 mm | - | 290 W/m² | - |
| 1778003895 | 16.11° C | 80% | 1017.9 hPa | 0 mm | - | 296 W/m² | - |
| 1778002681 | 15.56° C | 77% | 1017.5 hPa | 0 mm | - | 196 W/m² | - |
| 1778002378 | 15.56° C | 78% | 1017.5 hPa | 0 mm | - | 202 W/m² | - |
| 1778001772 | 15° C | 78% | 1017.5 hPa | 0 mm | - | 212 W/m² | - |
| 1778001467 | 15° C | 79% | 1017.6 hPa | 0 mm | - | 180 W/m² | - |
| 1778001164 | 15° C | 81% | 1017.7 hPa | 0 mm | - | 158 W/m² | - |
| 1778000558 | 15° C | 80% | 1017.7 hPa | 0 mm | - | 169 W/m² | - |
| 1778000253 | 15° C | 81% | 1017.7 hPa | 0 mm | - | 161 W/m² | - |
| 1777999645 | 15° C | 81% | 1017.8 hPa | 0 mm | - | 150 W/m² | - |
| 1777996922 | 14.44° C | 85% | 1017.1 hPa | 0 mm | - | 261 W/m² | - |
| 1777995404 | 13.89° C | 91% | 1017.1 hPa | 0 mm | - | 194 W/m² | - |
| 1777995101 | 13.33° C | 90% | 1017.2 hPa | 0 mm | - | 184 W/m² | - |
* Rain latest hour (hover to see other rain measurements)
** Current wind speed in m/s (hover to see current wind gust speed)